Terminal Aerodrome Forecast
Issued by NWS Lake Charles, LA

Home | Current Version | Previous Version | Text Only | Print | Product List | Glossary On
Versions: 1 2 3 4 5 6 7 8 9 10 11 12 13 14 15 16 17 18 19 20
000
FTUS44 KLCH 191720
TAFAEX
TAF
KAEX 191720Z 1918/2018 17016G24KT P6SM SCT035
     FM200100 15012KT P6SM FEW012
     FM200600 14008KT 6SM BR BKN010
     FM201500 16014G21KT P6SM BKN015=

USA.gov is the U.S. government's official web portal to all federal, state and local government web resources and services.